| time (UTC) | temp F | wind direction | speed MPH | gust MPH | rain 1hr in | rain 24hr in | rain mn in | humidity % | barometer mb |
| 20260503184932 | 75 | 227 | 7.0 | 14.0 | 0.00 | 0.00 | 0.00 | 99 | 1012.5 |
| 20260503184233 | 75 | 226 | 6.0 | 12.0 | 0.00 | 0.00 | 0.00 | 99 | 1012.6 |
| 20260503183532 | 75 | 226 | 8.0 | 11.0 | 0.00 | 0.00 | 0.00 | 99 | 1012.7 |
| 20260503182832 | 77 | 229 | 6.0 | 11.0 | 0.00 | 0.00 | 0.00 | 99 | 1012.8 |
| 20260503182133 | 78 | 129 | 5.0 | 8.0 | 0.00 | 0.00 | 0.00 | 99 | 1012.8 |
| 20260503181432 | 76 | 145 | 3.0 | 7.0 | 0.00 | 0.00 | 0.00 | 99 | 1012.8 |
| 20260503180733 | 74 | 114 | 3.0 | 6.0 | 0.00 | 0.00 | 0.00 | 99 | 1012.8 |
| 20260503180114 | 74 | 44 | 1.0 | 6.0 | 0.00 | 0.00 | 0.00 | 99 | 1012.9 |
| 20260503175332 | 76 | 272 | 2.0 | 9.0 | 0.00 | 0.00 | 0.00 | 99 | 1013.0 |
| 20260503174715 | 76 | 140 | 4.0 | 9.0 | 0.00 | 0.00 | 0.00 | 99 | 1013.1 |
| 20260503173932 | 76 | 78 | 2.0 | 8.0 | 0.00 | 0.00 | 0.00 | 99 | 1013.2 |
| 20260503173232 | 74 | 127 | 2.0 | 6.0 | 0.00 | 0.00 | 0.00 | 99 | 1013.3 |
| 20260503172532 | 74 | 17 | 1.0 | 7.0 | 0.00 | 0.00 | 0.00 | 99 | 1013.4 |
| 20260503171832 | 74 | 88 | 4.0 | 6.0 | 0.00 | 0.00 | 0.00 | 99 | 1013.4 |
| 20260503171132 | 74 | 195 | 1.0 | 6.0 | 0.00 | 0.00 | 0.00 | 99 | 1013.4 |
| 20260503170432 | 74 | 30 | 2.0 | 5.0 | 0.00 | 0.00 | 0.00 | 99 | 1013.4 |
| 20260503160132 | 66 | 61 | 1.0 | 4.0 | 0.00 | 0.00 | 0.00 | 97 | 1014.0 |
| 20260503150614 | 59 | 277 | 0.0 | 4.0 | 0.00 | 0.00 | 0.00 | 96 | 1014.1 |
| 20260503140232 | 50 | 120 | 1.0 | 3.0 | 0.00 | 0.00 | 0.00 | 94 | 1014.0 |
| 20260503131332 | 48 | 0.0 | 2.0 | 0.00 | 0.00 | 0.00 | 94 | 1013.7 | |
| 20260503130632 | 48 | 128 | 0.0 | 2.0 | 0.00 | 0.00 | 0.00 | 94 | 1013.7 |
| 20260503110732 | 49 | 0.0 | 0.0 | 0.00 | 0.00 | 0.00 | 94 | 1013.8 | |
| 20260503090132 | 52 | 350 | 1.0 | 2.0 | 0.00 | 0.00 | 0.00 | 94 | 1013.4 |
| 20260503081232 | 53 | 0.0 | 0.0 | 0.00 | 0.00 | 0.00 | 95 | 1013.4 | |
| 20260503080615 | 53 | 0.0 | 0.0 | 0.00 | 0.00 | 0.00 | 95 | 1013.4 | |
| 20260503072332 | 53 | 0.0 | 0.0 | 0.00 | 0.00 | 0.00 | 95 | 1013.3 | |
| 20260503071632 | 53 | 0.0 | 0.0 | 0.00 | 0.00 | 0.00 | 95 | 1013.3 | |
| 20260503071014 | 53 | 0.0 | 0.0 | 0.00 | 0.00 | 0.00 | 95 | 1013.2 | |
| 20260503070232 | 53 | 0.0 | 0.0 | 0.00 | 0.00 | 0.00 | 95 | 1013.2 | |
| 20260503054531 | 56 | 0.0 | 0.0 | 0.00 | 0.00 | 0.02 | 95 | 1012.9 | |
| 20260503053914 | 56 | 0.0 | 2.0 | 0.00 | 0.00 | 0.02 | 95 | 1012.9 | |
| 20260503053132 | 56 | 189 | 1.0 | 4.0 | 0.00 | 0.00 | 0.02 | 95 | 1012.9 |
| 20260503052432 | 57 | 208 | 2.0 | 6.0 | 0.00 | 0.00 | 0.02 | 95 | 1012.9 |
| 20260503051731 | 57 | 221 | 4.0 | 5.0 | 0.00 | 0.00 | 0.02 | 95 | 1013.0 |
| 20260503051032 | 57 | 212 | 2.0 | 7.0 | 0.00 | 0.00 | 0.02 | 96 | 1013.0 |
| 20260503050332 | 57 | 218 | 3.0 | 7.0 | 0.00 | 0.00 | 0.02 | 96 | 1013.0 |
| 20260503045632 | 57 | 229 | 5.0 | 7.0 | 0.00 | 0.00 | 0.02 | 96 | 1013.0 |
| 20260503045014 | 58 | 223 | 5.0 | 8.0 | 0.00 | 0.00 | 0.02 | 96 | 1013.0 |
| 20260503044315 | 58 | 227 | 7.0 | 8.0 | 0.00 | 0.00 | 0.02 | 96 | 1013.0 |
| 20260503043532 | 58 | 227 | 4.0 | 5.0 | 0.00 | 0.00 | 0.02 | 96 | 1012.9 |
| 20260503042831 | 58 | 230 | 3.0 | 7.0 | 0.00 | 0.00 | 0.02 | 96 | 1012.8 |
| 20260503042131 | 58 | 225 | 3.0 | 7.0 | 0.00 | 0.00 | 0.02 | 96 | 1012.8 |
| 20260503041431 | 59 | 190 | 0.0 | 2.0 | 0.00 | 0.00 | 0.02 | 96 | 1012.7 |
| 20260503040815 | 59 | 180 | 1.0 | 3.0 | 0.00 | 0.00 | 0.02 | 96 | 1012.6 |
| 20260503040032 | 60 | 0.0 | 5.0 | 0.00 | 0.00 | 0.02 | 96 | 1012.5 | |
| 20260503035332 | 60 | 233 | 3.0 | 5.0 | 0.00 | 0.00 | 0.02 | 96 | 1012.4 |
| 20260503034714 | 60 | 241 | 2.0 | 4.0 | 0.00 | 0.00 | 0.02 | 96 | 1012.3 |
| 20260503033932 | 60 | 218 | 3.0 | 4.0 | 0.00 | 0.00 | 0.02 | 96 | 1012.3 |
| 20260503033231 | 61 | 154 | 1.0 | 6.0 | 0.00 | 0.00 | 0.02 | 96 | 1012.2 |
| 20260503032614 | 61 | 225 | 3.0 | 6.0 | 0.00 | 0.00 | 0.02 | 96 | 1012.2 |
| 20260503031832 | 61 | 231 | 5.0 | 7.0 | 0.00 | 0.00 | 0.02 | 96 | 1012.3 |
| 20260503031132 | 62 | 203 | 1.0 | 5.0 | 0.00 | 0.00 | 0.02 | 97 | 1012.2 |
| 20260503030432 | 63 | 145 | 2.0 | 3.0 | 0.00 | 0.00 | 0.02 | 97 | 1012.1 |
| 20260503025732 | 64 | 203 | 0.0 | 3.0 | 0.00 | 0.00 | 0.02 | 97 | 1012.1 |
| 20260503025031 | 64 | 208 | 1.0 | 4.0 | 0.00 | 0.00 | 0.02 | 97 | 1012.1 |
| 20260503024332 | 65 | 212 | 3.0 | 6.0 | 0.00 | 0.00 | 0.02 | 97 | 1012.1 |
| 20260503023714 | 65 | 163 | 1.0 | 4.0 | 0.00 | 0.00 | 0.02 | 97 | 1012.1 |
| 20260503022931 | 65 | 206 | 2.0 | 5.0 | 0.00 | 0.00 | 0.02 | 97 | 1012.1 |
| 20260503022231 | 65 | 222 | 4.0 | 6.0 | 0.00 | 0.00 | 0.02 | 97 | 1012.2 |
| 20260503021532 | 66 | 215 | 4.0 | 7.0 | 0.00 | 0.00 | 0.02 | 97 | 1012.2 |
| 20260503020832 | 66 | 159 | 5.0 | 7.0 | 0.00 | 0.00 | 0.02 | 97 | 1012.2 |
| 20260503020132 | 67 | 220 | 5.0 | 9.0 | 0.00 | 0.00 | 0.02 | 97 | 1012.3 |
| 20260503015431 | 67 | 212 | 6.0 | 12.0 | 0.00 | 0.00 | 0.02 | 98 | 1012.3 |
| 20260503014732 | 69 | 221 | 8.0 | 12.0 | 0.00 | 0.00 | 0.02 | 98 | 1012.4 |
| 20260503014031 | 70 | 224 | 6.0 | 8.0 | 0.00 | 0.00 | 0.02 | 98 | 1012.5 |
| 20260503013332 | 72 | 212 | 2.0 | 5.0 | 0.00 | 0.00 | 0.02 | 98 | 1012.6 |
| 20260503012631 | 73 | 203 | 4.0 | 8.0 | 0.00 | 0.00 | 0.02 | 99 | 1012.6 |
| 20260503011932 | 73 | 256 | 4.0 | 9.0 | 0.00 | 0.00 | 0.02 | 99 | 1012.6 |
| 20260503011314 | 73 | 360 | 1.0 | 12.0 | 0.00 | 0.00 | 0.02 | 99 | 1012.6 |
| 20260503010532 | 73 | 248 | 5.0 | 12.0 | 0.00 | 0.00 | 0.02 | 99 | 1012.7 |
| 20260503005832 | 74 | 245 | 4.0 | 17.0 | 0.00 | 0.00 | 0.02 | 99 | 1012.7 |
| 20260503005131 | 74 | 302 | 5.0 | 17.0 | 0.00 | 0.00 | 0.02 | 99 | 1012.7 |
| 20260503004432 | 74 | 347 | 3.0 | 15.0 | 0.00 | 0.00 | 0.02 | 99 | 1012.7 |
| 20260503003731 | 74 | 293 | 5.0 | 15.0 | 0.00 | 0.00 | 0.02 | 99 | 1012.7 |
| 20260503003031 | 74 | 323 | 2.0 | 13.0 | 0.00 | 0.00 | 0.02 | 99 | 1012.8 |
| 20260503002332 | 74 | 294 | 3.0 | 9.0 | 0.00 | 0.00 | 0.02 | 99 | 1012.7 |
| 20260503001631 | 75 | 338 | 6.0 | 12.0 | 0.00 | 0.00 | 0.02 | 99 | 1012.8 |
| 20260503000931 | 74 | 268 | 3.0 | 9.0 | 0.00 | 0.00 | 0.02 | 99 | 1012.8 |
| 20260503000314 | 74 | 299 | 4.0 | 9.0 | 0.00 | 0.00 | 0.02 | 99 | 1012.9 |
| 20260502235531 | 74 | 292 | 2.0 | 11.0 | 0.00 | 0.00 | 0.02 | 99 | 1013.0 |
| 20260502234831 | 74 | 313 | 6.0 | 11.0 | 0.00 | 0.00 | 0.02 | 99 | 1013.0 |
| 20260502234131 | 74 | 292 | 5.0 | 12.0 | 0.00 | 0.00 | 0.02 | 99 | 1013.1 |
| 20260502233432 | 74 | 319 | 5.0 | 12.0 | 0.00 | 0.00 | 0.02 | 99 | 1013.2 |
| 20260502232731 | 74 | 301 | 3.0 | 7.0 | 0.00 | 0.00 | 0.02 | 99 | 1013.3 |
| 20260502232031 | 75 | 316 | 5.0 | 14.0 | 0.00 | 0.00 | 0.02 | 99 | 1013.3 |
| 20260502231415 | 75 | 277 | 4.0 | 14.0 | 0.00 | 0.00 | 0.02 | 99 | 1013.3 |
| 20260502230631 | 75 | 304 | 6.0 | 12.0 | 0.00 | 0.00 | 0.02 | 99 | 1013.4 |
| 20260502225931 | 74 | 307 | 5.0 | 12.0 | 0.00 | 0.00 | 0.02 | 99 | 1013.5 |
| 20260502225315 | 73 | 287 | 4.0 | 9.0 | 0.00 | 0.00 | 0.02 | 99 | 1013.6 |
| 20260502224531 | 73 | 285 | 4.0 | 8.0 | 0.00 | 0.00 | 0.02 | 99 | 1013.8 |
| 20260502223831 | 73 | 290 | 5.0 | 12.0 | 0.00 | 0.00 | 0.02 | 99 | 1013.9 |
| 20260502223132 | 73 | 284 | 5.0 | 14.0 | 0.00 | 0.00 | 0.02 | 99 | 1014.1 |
| 20260502222431 | 73 | 323 | 6.0 | 12.0 | 0.00 | 0.00 | 0.02 | 99 | 1014.2 |
| 20260502221731 | 73 | 311 | 3.0 | 9.0 | 0.00 | 0.00 | 0.02 | 99 | 1014.2 |
| 20260502221031 | 74 | 283 | 5.0 | 14.0 | 0.00 | 0.00 | 0.02 | 99 | 1014.3 |
| 20260502220331 | 73 | 287 | 4.0 | 15.0 | 0.00 | 0.00 | 0.02 | 99 | 1014.3 |
| 20260502215631 | 73 | 326 | 6.0 | 15.0 | 0.00 | 0.00 | 0.02 | 99 | 1014.3 |
| 20260502214931 | 73 | 309 | 4.0 | 8.0 | 0.00 | 0.00 | 0.02 | 99 | 1014.5 |
| 20260502214232 | 74 | 299 | 3.0 | 10.0 | 0.00 | 0.00 | 0.02 | 99 | 1014.5 |
| 20260502213531 | 73 | 277 | 2.0 | 11.0 | 0.00 | 0.00 | 0.02 | 99 | 1014.6 |
| 20260502212831 | 72 | 290 | 7.0 | 20.0 | 0.00 | 0.00 | 0.02 | 98 | 1014.8 |
| 20260502212132 | 72 | 329 | 7.0 | 20.0 | 0.00 | 0.00 | 0.02 | 98 | 1014.8 |
| 20260502211431 | 72 | 323 | 5.0 | 16.0 | 0.00 | 0.00 | 0.02 | 98 | 1014.8 |
| 20260502210731 | 72 | 307 | 5.0 | 15.0 | 0.00 | 0.00 | 0.02 | 98 | 1014.8 |
| 20260502210032 | 73 | 346 | 9.0 | 15.0 | 0.00 | 0.00 | 0.02 | 99 | 1014.9 |
| 20260502205414 | 73 | 277 | 4.0 | 8.0 | 0.00 | 0.00 | 0.02 | 99 | 1015.0 |
| 20260502204714 | 72 | 320 | 4.0 | 10.0 | 0.00 | 0.00 | 0.02 | 98 | 1015.1 |
| 20260502203932 | 70 | 295 | 3.0 | 10.0 | 0.00 | 0.00 | 0.02 | 98 | 1015.1 |
| 20260502203231 | 70 | 263 | 5.0 | 13.0 | 0.00 | 0.00 | 0.02 | 98 | 1015.2 |
| 20260502202532 | 71 | 297 | 5.0 | 13.0 | 0.00 | 0.00 | 0.02 | 98 | 1015.2 |
| 20260502201831 | 71 | 299 | 5.0 | 12.0 | 0.00 | 0.00 | 0.02 | 98 | 1015.3 |
| 20260502201131 | 71 | 291 | 4.0 | 17.0 | 0.00 | 0.00 | 0.02 | 98 | 1015.3 |
| 20260502200432 | 71 | 274 | 5.0 | 16.0 | 0.00 | 0.00 | 0.02 | 98 | 1015.4 |
| 20260502195732 | 71 | 294 | 5.0 | 11.0 | 0.00 | 0.00 | 0.02 | 98 | 1015.4 |
| 20260502195031 | 71 | 327 | 6.0 | 11.0 | 0.00 | 0.00 | 0.02 | 98 | 1015.5 |
| 20260502194331 | 71 | 305 | 4.0 | 11.0 | 0.00 | 0.00 | 0.02 | 98 | 1015.5 |
| 20260502193631 | 72 | 331 | 6.0 | 14.0 | 0.00 | 0.00 | 0.02 | 98 | 1015.6 |
| 20260502193014 | 73 | 292 | 4.0 | 17.0 | 0.00 | 0.00 | 0.02 | 99 | 1015.6 |
| 20260502192232 | 74 | 343 | 6.0 | 11.0 | 0.00 | 0.00 | 0.02 | 99 | 1015.5 |
| 20260502191531 | 72 | 232 | 2.0 | 7.0 | 0.00 | 0.00 | 0.02 | 99 | 1015.6 |
| 20260502190832 | 71 | 257 | 3.0 | 8.0 | 0.00 | 0.00 | 0.02 | 98 | 1015.6 |
| 20260502190131 | 71 | 324 | 4.0 | 12.0 | 0.00 | 0.00 | 0.02 | 98 | 1015.6 |
| 20260502185514 | 71 | 349 | 3.0 | 9.0 | 0.00 | 0.00 | 0.02 | 98 | 1015.6 |